Theta_e
350 348 349 350 348 348 349 350 349 348 345 342 339 340 341 342 339 342 339 341 341 331
352 353 351 353 353 348 347 344 344 343 340 337 333 333 335 338 338 342 342 344 342 337
343 344 345 347 347 345 347 345 343 340 340 335 335 331 331 334 336 339 338 336 338 338
342 343 342 342 343 345 347 344 342 340 336 335 331 332 329 329 333 336 337 339 335 336
338 341 340 338 339 343 341 340 341 339 337 335 334 333 331 329 328 334 336 337 335 334
332 334 336 341 342 338 340 342 340 340 338 335 333 333 334 330 331 333 334 336 335 331
329 331 334 336 338 336 337 339 338 339 337 336 334 330 330 332 333 334 336 338 336 334
328 328 329 331 335 339 335 334 338 337 339 337 334 330 332 332 332 334 335 334 332 333
326 323 324 326 328 331 335 332 333 335 331 329 331 318 315 326 338 336 336 335 336 333
323 320 320 322 322 324 328 332 333 329 330 333 335 315 312 314 336 337 337 335 334 330
321 320 319 320 321 324 325 327 328 331 332 331 331 312 307 309 329 330 332 336 337 331
320 321 319 318 320 323 324 325 326 327 329 332 332 311 309 312 328 330 330 335 337 337
317 320 321 319 320 322 322 322 323 325 328 323 331 316 306 312 332 327 326 330 334 316
316 318 323 322 322 321 320 321 323 324 327 329 331 332 305 304 326 328 328 328 327 329
Wind_Speed
9 8 9 11 9 8 9 5 6 8 7 7 4 3 6 6 9 10 10 12 10 8
6 7 6 5 6 6 9 10 12 13 13 11 10 5 5 7 11 9 8 9 10 9
7 7 6 5 10 12 13 15 16 17 15 14 16 13 6 5 12 11 9 9 10 9
9 5 4 5 7 10 12 14 13 12 13 14 15 16 20 16 12 13 12 11 11 12
12 10 5 4 6 4 8 9 11 12 11 14 13 11 13 14 15 15 13 15 13 14
11 11 7 9 5 7 9 9 11 11 13 12 9 11 13 11 13 14 14 15 15 11
10 10 10 6 4 5 7 10 10 11 11 10 12 10 11 13 13 15 12 13 13 14
6 8 10 10 9 4 5 8 9 9 12 13 13 10 12 12 12 13 13 14 14 13
6 5 6 8 9 8 5 3 5 10 11 11 8 11 12 13 12 14 16 16 17 12
6 7 5 6 7 7 9 8 5 6 6 11 14 12 14 18 15 12 12 13 14 12
8 7 5 6 6 7 7 9 9 10 9 10 9 11 13 14 12 13 15 15 16 15
11 7 7 5 5 5 6 7 8 9 12 12 11 12 16 13 12 14 15 16 16 17
11 11 9 6 5 4 5 8 8 11 12 12 14 13 15 15 10 12 10 12 14 13
12 12 10 8 5 4 5 7 8 11 11 13 13 12 9 14 9 8 9 9 8 8
Wind_Direction
246 239 229 224 241 198 218 127 140 145 135 133 98 1 315 282 251 245 237 237 243 256
308 263 273 233 192 129 146 152 147 149 142 136 125 114 9 295 274 264 242 244 236 237
335 289 260 182 195 179 178 169 158 157 157 156 161 149 144 286 274 254 248 237 224 229
347 335 293 231 219 201 180 169 171 177 171 170 164 175 161 179 248 262 241 243 230 222
358 360 309 272 296 213 198 212 212 197 216 212 194 184 195 190 181 228 235 234 228 224
355 358 7 323 233 238 264 226 228 223 216 222 202 206 221 203 199 215 219 232 224 220
356 351 351 352 300 273 251 273 206 229 216 225 216 205 218 220 204 218 233 238 231 216
346 353 349 349 343 331 252 249 255 239 232 226 222 225 236 232 225 238 227 220 213 210
324 341 344 338 338 335 331 278 294 249 220 227 239 250 225 234 239 230 228 222 220 216
298 303 341 331 328 334 331 325 280 259 269 262 251 222 216 221 232 229 228 226 230 218
269 289 312 315 328 327 323 317 311 302 271 254 249 232 217 215 228 238 244 235 224 229
285 264 275 280 307 314 315 311 301 291 292 281 260 222 220 217 229 234 239 243 234 223
281 277 265 270 266 286 294 296 305 302 293 281 272 258 221 206 230 231 233 234 240 228
276 267 251 258 259 277 294 309 301 301 301 292 285 282 232 207 216 223 222 227 221 223